Weather History for KPOU - February, 2014

Change the Weather History Date:

Sunday, February 2, 2014

  Actual Average Record
Temperature  
Mean Temperature 38 °F 26 °F  
Max Temperature 49 °F 37 °F 54 °F (1973)
Min Temperature 27 °F 16 °F -22 °F (1961)
Degree Days  
Heating Degree Days 27 39  
Month to date heating degree days 57 78  
Since 1 July heating degree days 3591 3630  
Cooling Degree Days 0 0  
Month to date cooling degree days 0 0  
Year to date cooling degree days 0 0  
Moisture  
Dew Point 31 °F    
Average Humidity 77    
Maximum Humidity 93    
Minimum Humidity 50    
Precipitation  
Precipitation 0.04 in 0.10 in 1.08 in (1973)
Month to date precipitation 0.04 0.19  
Year to date precipitation 1.54 3.27  
Sea Level Pressure  
Sea Level Pressure 29.96 in    
Wind  
Wind Speed 3 mph (West)    
Max Wind Speed 14 mph    
Max Gust Speed -    
Visibility 8 miles    
Events Rain    
T = Trace of Precipitation, MM = Missing Value Source: NWS Daily Summary

Daily Weather History Graph

Daily Weather History Graph

Search for Another Location

Airport or City:

Trip Planner

Search our weather history database for the weather conditions in past years. The results will help you decide how hot, cold, wet, or windy it might be!

Date:

Astronomy

Feb. 02, 2014 Rise Set
Actual Time 7:06 AM EST 5:12 PM EST
Civil Twilight 6:37 AM EST 5:41 PM EST
Nautical Twilight 6:04 AM EST 6:15 PM EST
Astronomical Twilight 5:31 AM EST 6:47 PM EST
Moon 8:28 AM EST (2/2) 8:57 PM EST (2/2)
Length of Visible Light 11h 04m
Length of Day
10h 06m
Waxing Crescent, 11% of the Moon is Illuminated
Feb 2
Waxing Crescent
Feb 6
First Quarter
Feb 14
Full
Feb 22
Last Quarter
Mar 1
New

Hourly Weather History & Observations

Time (EST) Temp. Windchill Dew Point Humidity Pressure Visibility Wind Dir Wind Speed Gust Speed Precip Events Conditions
12:53 AM 36.0 °F - 27.0 °F 70% 29.99 in 9.0 mi Calm Calm - N/A   Overcast
1:53 AM 34.0 °F - 27.0 °F 75% 29.96 in 8.0 mi Calm Calm - N/A   Overcast
2:11 AM 33.1 °F - 26.1 °F 75% 29.95 in 9.0 mi Calm Calm - N/A   Scattered Clouds
2:53 AM 32.0 °F - 26.1 °F 79% 29.93 in 9.0 mi Calm Calm - N/A   Clear
3:53 AM 30.0 °F - 26.1 °F 85% 29.92 in 8.0 mi Calm Calm - N/A   Clear
4:53 AM 28.0 °F - 24.1 °F 85% 29.91 in 6.0 mi Calm Calm - N/A   Clear
5:53 AM 28.0 °F - 24.1 °F 85% 29.90 in 6.0 mi Calm Calm - N/A   Partly Cloudy
6:53 AM 28.0 °F - 24.1 °F 85% 29.90 in 6.0 mi Calm Calm - N/A   Clear
7:53 AM 36.0 °F 32.1 °F 30.9 °F 82% 29.90 in 6.0 mi SSW 4.6 mph - N/A   Haze
8:53 AM 39.9 °F 35.1 °F 32.0 °F 73% 29.90 in 9.0 mi SW 6.9 mph - N/A   Clear
9:53 AM 44.1 °F 37.4 °F 30.9 °F 60% 29.91 in 10.0 mi SW 13.8 mph - N/A   Overcast
10:53 AM 46.9 °F - 30.0 °F 52% 29.92 in 10.0 mi SW 12.7 mph - N/A   Overcast
11:53 AM 48.9 °F - 30.9 °F 50% 29.92 in 10.0 mi West 6.9 mph - N/A   Overcast
12:53 PM 48.0 °F - 33.1 °F 56% 29.91 in 10.0 mi West 8.1 mph - 0.00 in Rain Light Rain
1:53 PM 45.0 °F 41.8 °F 37.9 °F 76% 29.91 in 6.0 mi WSW 5.8 mph - 0.03 in Rain Light Rain
2:53 PM 45.0 °F 41.8 °F 37.9 °F 76% 29.93 in 9.0 mi SW 5.8 mph - 0.01 in   Overcast
3:53 PM 44.1 °F 40.1 °F 37.0 °F 76% 29.94 in 10.0 mi WSW 6.9 mph - N/A   Overcast
4:53 PM 42.1 °F 37.7 °F 37.9 °F 85% 29.97 in 6.0 mi North 6.9 mph - N/A   Overcast
5:53 PM 39.9 °F 37.8 °F 36.0 °F 86% 29.98 in 6.0 mi NW 3.5 mph - N/A   Mostly Cloudy
6:53 PM 39.0 °F 35.7 °F 36.0 °F 89% 30.02 in 5.0 mi NNW 4.6 mph - N/A   Overcast
7:53 PM 37.9 °F - 36.0 °F 93% 30.04 in 5.0 mi Calm Calm - N/A   Overcast
8:53 PM 37.9 °F - 34.0 °F 86% 30.06 in 7.0 mi Calm Calm - N/A   Overcast
9:53 PM 37.9 °F 34.4 °F 34.0 °F 86% 30.08 in 7.0 mi NW 4.6 mph - N/A   Overcast
10:53 PM 37.0 °F 34.5 °F 33.1 °F 86% 30.07 in 8.0 mi North 3.5 mph - N/A   Overcast
11:53 PM 37.0 °F 34.5 °F 30.0 °F 76% 30.10 in 10.0 mi NE 3.5 mph - N/A   Overcast